LA8QT Lodingen NO current weather conditions

sailwx.info

Wind from 087 at 0 knots

Air temperature 7.8° C
Dewpoint 3.2° C

Last reported at 2014-Sep-30 10:36 UTC.
Time now 2014-Sep-30 11:53 UTC

Location: N 68°28' E 016°04'.
View on Google Maps.

See reports from other nearby stations

  
Tides and Currents Weather Stations Pressure Air Temp Water Temp Dewpoint Dewpoint Depression Visibility Wind Speed Wind Dir Waves Ship Positions
date/time (UTC)wind fromknots sea level pressurealtimeterstation pressurevisibilityair tempwater tempwave heightnotes
2014-Sep-30 10:36 087 0 7.8
2014-Sep-30 10:21 086 7.8
2014-Sep-30 10:06 086 7.2
2014-Sep-30 09:51 086 6.7
2014-Sep-30 09:36 086 6.7
2014-Sep-30 09:21 086 1 6.1
2014-Sep-30 09:06 086 1 6.1
2014-Sep-30 08:51 086 1 6.1
2014-Sep-30 08:36 086 1 6.1
2014-Sep-30 08:21 086 1 5.6
2014-Sep-30 08:06 086 6.7
2014-Sep-30 07:51 086 6.1
2014-Sep-30 07:36 086 5.6
2014-Sep-30 07:21 086 0 5.6
2014-Sep-30 07:06 086 6.7
2014-Sep-30 06:51 086 6.1
2014-Sep-30 06:36 086 5.0
2014-Sep-30 06:21 086 4.4
2014-Sep-30 06:06 086 3.9
2014-Sep-30 05:51 086 1 3.3
2014-Sep-30 04:51 086 0 3.3
2014-Sep-30 04:36 086 1 3.3
2014-Sep-30 04:21 086 0 3.3
2014-Sep-30 04:05 086 0 3.3
2014-Sep-30 03:50 086 3.9
2014-Sep-30 03:35 086 3.9
2014-Sep-30 03:20 086 3.9
2014-Sep-30 03:05 086 4.4
2014-Sep-30 02:50 086 5.0
2014-Sep-30 02:35 086 5.0
2014-Sep-30 02:20 086 0 5.0
2014-Sep-30 02:05 086 1 6.1
2014-Sep-30 01:50 091 5 6.1
2014-Sep-30 01:35 095 10 6.1
2014-Sep-30 01:20 098 13 6.1
2014-Sep-30 01:05 090 12 6.7
2014-Sep-30 00:50 086 7 6.7
2014-Sep-30 00:35 093 5 6.7
2014-Sep-30 00:05 064 3 6.7
2014-Sep-29 23:50 035 1 6.7
2014-Sep-29 23:35 260 6.7
2014-Sep-29 23:20 058 6.1
2014-Sep-29 23:05 058 6.1
2014-Sep-29 22:50 049 1 6.7
2014-Sep-29 22:35 359 5 6.1
2014-Sep-29 22:20 066 2 6.7
2014-Sep-29 22:05 037 2 6.1
2014-Sep-29 21:50 032 0 6.7
2014-Sep-29 21:35 021 7.2
2014-Sep-29 21:20 010 7.2
2014-Sep-29 21:05 352 6 7.2
2014-Sep-29 20:50 289 0 6.7
2014-Sep-29 20:35 316 2 7.2
2014-Sep-29 20:20 341 3 6.7
2014-Sep-29 20:04 314 2 6.7
2014-Sep-29 19:49 280 6.7
2014-Sep-29 19:35 280 6.7
2014-Sep-29 19:19 267 1 7.2
2014-Sep-29 19:04 284 7.2
2014-Sep-29 18:49 309 7.2
2014-Sep-29 18:34 346 5 7.8
2014-Sep-29 18:19 319 0 7.2
2014-Sep-29 18:05 009 0 7.8
2014-Sep-29 17:49 352 1 7.8
2014-Sep-29 17:34 330 0 7.8
2014-Sep-29 17:19 343 2 7.8
2014-Sep-29 17:04 021 3 7.8
2014-Sep-29 16:50 012 5 7.8
2014-Sep-29 16:34 355 8 7.8
2014-Sep-29 16:19 351 7 7.2
2014-Sep-29 16:04 340 2 7.8
2014-Sep-29 15:49 343 6 7.8
2014-Sep-29 15:34 359 3 7.8
2014-Sep-29 15:19 351 3 7.8
2014-Sep-29 15:04 299 2 7.8
2014-Sep-29 14:49 334 1 7.8
2014-Sep-29 14:34 313 0 7.8
2014-Sep-29 14:19 008 4 7.8
2014-Sep-29 14:04 341 1 8.3
2014-Sep-29 13:49 357 0 8.3
2014-Sep-29 13:34 001 0 8.3
2014-Sep-29 13:19 320 4 8.3
2014-Sep-29 13:04 312 2 8.9
2014-Sep-29 12:49 324 3 8.9
2014-Sep-29 12:34 354 6 8.9
2014-Sep-29 12:19 337 6 8.3
2014-Sep-29 12:04 002 6 8.3
2014-Sep-29 11:48 324 1 8.3
2014-Sep-29 11:33 299 6 8.3
2014-Sep-29 11:18 320 5 8.3
2014-Sep-29 11:03 334 8.3
2014-Sep-29 10:48 333 0 8.3
2014-Sep-29 10:33 053 4 8.3
2014-Sep-29 10:18 009 6 8.3
2014-Sep-29 10:03 336 4 8.3
2014-Sep-29 09:48 074 0 7.8
2014-Sep-29 09:33 067 1 8.3
2014-Sep-29 09:18 067 3 7.8
2014-Sep-29 09:03 066 0 7.8
2014-Sep-29 08:48 066 1 7.2
2014-Sep-29 08:33 066 2 7.2
2014-Sep-29 08:18 067 2 7.2
2014-Sep-29 08:03 080 6 6.7
2014-Sep-29 07:48 058 3 6.7
2014-Sep-29 07:33 064 2 6.1
2014-Sep-29 07:17 059 4 5.6
2014-Sep-29 07:02 044 1 5.6
2014-Sep-29 06:48 043 1 5.6
2014-Sep-29 06:32 043 2 5.6
2014-Sep-29 06:17 033 2 5.6
2014-Sep-29 06:02 033 2 5.0
2014-Sep-29 05:47 032 1 5.0
2014-Sep-29 04:47 028 5 5.0
2014-Sep-29 04:32 032 5 5.0
2014-Sep-29 04:18 041 5 5.0
2014-Sep-29 04:02 039 6 5.0
2014-Sep-29 03:47 039 4 5.0
2014-Sep-29 03:32 048 3 5.0
2014-Sep-29 03:17 041 2 5.0
2014-Sep-29 03:02 105 1 5.6
2014-Sep-29 02:47 087 6.1
2014-Sep-29 02:32 087 2 6.7
2014-Sep-29 02:03 140 4 6.7
2014-Sep-29 01:47 160 8 7.2
2014-Sep-29 01:32 163 13 6.7
2014-Sep-29 01:17 188 11 6.7
2014-Sep-29 01:02 195 3 6.7
2014-Sep-29 00:47 186 8 6.1
2014-Sep-29 00:32 199 13 6.7
2014-Sep-29 00:17 202 14 7.2
2014-Sep-29 00:02 189 20 7.2
2014-Sep-28 23:47 161 19 6.7
2014-Sep-28 23:32 193 19 7.2
2014-Sep-28 23:17 202 23 7.8
2014-Sep-28 23:02 202 18 7.8
2014-Sep-28 22:47 197 20 7.2
2014-Sep-28 22:32 201 14 7.8
2014-Sep-28 22:16 201 16 7.8
2014-Sep-28 22:01 271 7 7.8
2014-Sep-28 21:46 240 3 7.2
2014-Sep-28 21:31 215 10 7.2
2014-Sep-28 21:16 256 12 7.8
2014-Sep-28 21:01 230 11 8.3
2014-Sep-28 20:46 232 12 8.3
2014-Sep-28 20:32 232 14 8.9
2014-Sep-28 20:17 240 13 8.9
2014-Sep-28 20:01 245 14 8.9
2014-Sep-28 19:46 261 10 8.3
2014-Sep-28 19:31 272 7 8.9
2014-Sep-28 19:16 268 2 7.2
2014-Sep-28 19:01 228 6.7
2014-Sep-28 18:47 226 6.1
2014-Sep-28 18:31 226 6.7
2014-Sep-28 18:16 226 6.7
2014-Sep-28 18:01 226 6.7
2014-Sep-28 17:46 226 6.7
2014-Sep-28 17:31 226 6.7
2014-Sep-28 17:16 226 6.7
2014-Sep-28 17:01 226 6.7
2014-Sep-28 16:46 224 6.7
2014-Sep-28 16:31 222 0 7.2
2014-Sep-28 16:16 236 6.7
2014-Sep-28 16:01 236 6.7
2014-Sep-28 15:46 236 0 6.7
2014-Sep-28 15:31 236 6.7
2014-Sep-28 15:16 236 6.7
2014-Sep-28 15:01 236 6.7
2014-Sep-28 14:46 236 7.2
2014-Sep-28 14:31 236 7.2
2014-Sep-28 14:16 236 7.8
2014-Sep-28 14:01 236 7.8
2014-Sep-28 13:46 236 8.3
2014-Sep-28 13:31 236 8.3
2014-Sep-28 13:16 236 0 8.3
2014-Sep-28 13:01 220 0 8.3
2014-Sep-28 12:46 228 0 8.3
2014-Sep-28 12:31 252 8.3
2014-Sep-28 12:16 253 8.3
2014-Sep-28 12:01 243 1 8.3
2014-Sep-28 11:46 228 1 8.3
2014-Sep-28 11:31 209 5 8.3
2014-Sep-28 11:16 206 6 8.3
2014-Sep-28 11:01 219 3 8.3